#timestamp,LO_Frequency,Hit,StdDev 
1674079215.7,286046998.2,N
1674079235.5,286047000.6,N
1674079255.3,286047000.2,N
1674079275.2,286047000.9,N
1674079295.0,286046998.1,N
1674079295.9,286046998.1,N
1674079315.7,286047000.8,N
1674079335.6,286047001.1,N
1674079355.4,286046998.6,N
1674079375.2,286046998.2,N
1674079395.1,286047000.1,N
1674079396.0,286047000.1,N
1674079415.8,286047000.6,N
1674079435.6,286046998.7,N
1674079455.5,286046998.5,N
1674079475.3,286046998.8,N
1674079495.1,286047000.6,N
1674079515.9,286047000.7,N
1674079535.7,286047001.1,N
1674079555.5,286047000.3,N
1674079575.4,286047001.1,N
1674079595.2,286047000.8,N
1674079615.0,286046998.4,N
1674079615.9,286046998.4,N
1674079635.8,286047001.1,N
1674079655.6,286046998.2,N
1674079675.4,286046998.6,N
1674079695.3,286046998.4,N
1674079715.1,286047001.2,N
1674079735.8,286046998.5,N
1674079755.7,286047000.8,N
1674079775.5,286047000.6,N
1674079795.3,286047000.7,N
1674079815.2,286047001.2,N
1674079835.9,286047000.7,N
1674079855.7,286046998.6,N
1674079875.6,286046998.7,N
1674079895.4,286047001.1,N
1674079915.2,286047001.1,N
1674079935.1,286047000.5,N
1674079936.0,286047000.5,N
1674079955.8,286046999.8,N
1674079975.6,286047000.5,N
1674079995.5,286046998.1,N
1674080015.3,286047000.9,N
1674080035.1,286046998.5,N
1674080055.9,286046998.2,N
1674080075.7,286046998.6,N
1674080095.5,286047001.0,N
1674080115.4,286047000.6,N
1674080135.2,286046998.1,N
1674080155.0,286047001.0,N
1674080155.9,286047001.0,N
1674080175.8,286046998.1,N
1674080195.6,286047000.6,N
1674080215.4,286046998.3,N
1674080235.3,286046998.1,N
1674080255.1,286046998.9,N
1674080275.8,286046998.7,N
1674080295.7,286046999.2,N
1674080315.5,286046998.6,N
1674080335.3,286046999.4,N
1674080355.2,286046998.1,N
1674080375.9,286047001.2,N
1674080395.7,286046998.3,N
1674080415.6,286047000.7,N
1674080435.4,286047001.0,N
1674080455.2,286046998.7,N
1674080475.1,286047000.4,N
1674080476.0,286047000.4,N
1674080495.8,286046998.1,N
1674080515.6,286046998.3,N
1674080535.5,286046998.6,N
1674080555.3,286046998.6,N
1674080575.1,286046998.2,N
1674080595.9,286047001.2,N
1674080615.7,286046998.4,N
1674080635.5,286046998.2,N
1674080655.4,286046999.3,N
1674080675.2,286046999.6,N
1674080695.0,286046999.4,N
1674080695.9,286046999.4,N
1674080715.8,286046998.3,N
1674080735.6,286046998.2,N
1674080755.4,286047000.2,N
1674080775.3,286047001.1,N
1674080795.1,286047000.6,N
1674080796.0,286047000.6,N
1674080815.8,286047000.4,N
1674080835.7,286047000.4,N
1674080855.5,286047000.1,N
1674080875.3,286047000.8,N
1674080895.2,286047000.1,N
1674080915.9,286046999.9,N
1674080935.7,286047002.6,N
1674080955.6,286046999.7,N
1674080975.4,286047002.5,N
1674080995.2,286047001.6,N
1674081015.1,286047001.6,N
1674081016.0,286047001.6,N
1674081035.8,286047000.6,N
1674081055.6,286047000.3,N
1674081075.5,286047002.8,N
1674081095.3,286047000.2,N
1674081115.1,286047000.5,N
1674081135.9,286047000.2,N
1674081155.7,286047000.9,N
1674081175.5,286047001.1,N
1674081195.4,286047000.4,N
1674081215.2,286047000.0,N
1674081235.0,286047000.0,N
1674081235.9,286047000.0,N
1674081255.8,286046999.7,N
1674081275.6,286047002.4,N
1674081295.4,286047002.2,N
1674081315.3,286047003.9,Y
1674081335.1,286047002.3,P
1674081355.8,286047000.2,N
1674081375.7,286046999.9,N
1674081395.5,286047000.9,N
1674081415.3,286047000.9,N
1674081435.2,286047000.2,N
1674081455.9,286047000.3,N
1674081475.7,286047000.2,N
1674081495.6,286047002.1,Y
1674081515.4,286047000.2,P
1674081535.2,286047000.5,N
1674081555.1,286047000.8,P
1674081556.0,286047000.8,Y
1674081575.8,286046998.8,P
1674081595.6,286047000.4,N
1674081615.5,286047000.5,N
1674081635.3,286047001.0,N
1674081655.1,286046999.9,N
1674081675.9,286047000.0,N
1674081695.7,286047001.1,N
1674081715.5,286046999.0,N
1674081735.4,286046996.6,Y
1674081755.2,286046998.7,P
1674081775.0,286046996.5,P
1674081775.9,286046996.5,N
1674081795.8,286046997.0,N
1674081815.6,286046996.6,N
1674081835.4,286046996.8,N
1674081855.3,286046997.4,N
1674081875.1,286046999.5,N
1674081895.8,286046996.7,N
1674081915.7,286046997.3,N
1674081935.5,286046995.8,Y
1674081955.3,286047011.9,P
1674081975.2,286046996.7,N
1674081995.0,286046995.3,N
1674081995.9,286046995.3,N
1674082015.7,286046995.6,N
1674082035.6,286046993.7,N
1674082055.4,286046991.7,N
1674082075.2,286046992.3,N
1674082095.1,286046994.0,N
1674082096.0,286046994.0,N
1674082115.8,286046993.7,N
1674082135.6,286046995.7,N
1674082155.5,286046993.6,N
1674082175.3,286046995.9,N
1674082195.1,286046993.6,N
1674082215.9,286046993.4,N
1674082235.7,286046996.0,N
1674082255.5,286046993.5,N
1674082275.4,286046993.8,N
1674082295.2,286046996.0,N
1674082315.0,286046996.0,N
1674082315.9,286046996.0,N
1674082335.8,286046993.8,N
1674082355.6,286046991.7,N
1674082375.4,286046994.8,N
1674082395.3,286046992.4,N
1674082415.1,286046992.6,N
1674082435.8,286046992.5,N
1674082455.7,286046992.5,N
1674082475.5,286046993.1,N
1674082495.3,286046993.2,N
1674082515.2,286046990.9,Y
1674082535.9,286046997.5,P
1674082555.7,286047000.2,N
1674082575.6,286046999.1,N
1674082595.4,286046998.0,N
1674082615.2,286046997.5,N
1674082635.1,286046997.4,N
1674082636.0,286046997.4,N
1674082655.8,286046996.8,N
1674082675.6,286046996.7,N
1674082695.5,286046996.5,N
1674082715.3,286046997.0,N
1674082735.1,286046997.5,N
1674082755.9,286046997.4,N
1674082775.7,286046997.8,N
1674082795.5,286046996.9,N
